Location: Ipswich
(52.0579°N, 1.1528°E)
Time: 09:31:00
(UTC+01:00)

ISS - Pass Details

Date: 22 May 2026
Orbit: 414 x 424 km, 51.6° (Epoch: 8 May)

Event Time Altitude Azimuth Distance (km) Brightness Sun altitude
Rises 21:36:21 0° 282° (WNW) 2,355 1.2 -5.8°
Reaches altitude 10° 21:38:36 10° 272° (W) 1,490 -0.2 -6.1°
Maximum altitude 21:41:33 30° 209° (SSW) 781 -2.5 -6.4°
Drops below altitude 10° 21:44:31 10° 147° (SSE) 1,486 -1.6 -6.7°
Enters shadow 21:44:45 - 145° (SE) 1,576 -1.5 -6.7°
